Newport, ME

7:08 PM EDT on October 22, 2014 (GMT -0400)
Downtown Newport | Change Station
CLOSE
Current Station
Personal Weather Station
Location: Newport, ME
Elevation: 227 ft
Nearby Weather Stations
Active Advisory: Areal Flood Watch

Elev 227 ft 44.84 °N, 69.28 °W | Updated 0 second ago

Overcast
Overcast
44.1 °F
Feels Like 42 °F
N
4.0
Wind Variable Wind from ENE
Gusts 11.0 mph

Today
High -- | Low -- °F
--% Chance of Precip.
Yesterday
High -- | Low -- °F
Precip. -- in
7:01 AM 5:40 PM
Waning Crescent, 1% visible
Pressure 30.17 in
Visibility 2.5 miles
Clouds Mostly Cloudy 1300 ft
Overcast 2000 ft
Windchill 42 °F
Dew Point 44 °F
Humidity 100%
Rainfall 0.18 in
Snow Depth Not available.
UV 0 out of 12
Pollen .10 out of 12
PM2.5 Good
Flu Activity Sporadic
METAR KBGR 222253Z 03015G21KT 2 1/2SM -RA BR BKN013 OVC020 08/06 A3017 RMK AO2 PK WND 03028/2211 SLP217 P0003 T00780061

More Conditions Fewer Conditions

Pressure 30.17 in
Visibility 2.5 miles
Clouds Mostly Cloudy 1300 ft
Overcast 2000 ft
Windchill 42 °F
Dew Point 44 °F
Humidity 100%
Rainfall 0.18 in
Snow Depth Not available.
UV 0 out of 12
Pollen .10 out of 12
PM2.5 Good
Flu Activity Sporadic
METAR KBGR 222253Z 03015G21KT 2 1/2SM -RA BR BKN013 OVC020 08/06 A3017 RMK AO2 PK WND 03028/2211 SLP217 P0003 T00780061

More Conditions Fewer Conditions

10-Day Weather Forecast

Almanac

Astronomy

Oct. 22, 2014 Rise Set
Actual Time 7:01 AM EDT 5:40 PM EDT
Civil Twilight 6:31 AM EDT 6:10 PM EDT
Nautical Twilight 5:57 AM EDT 6:44 PM EDT
Astronomical Twilight 5:23 AM EDT 7:18 PM EDT
Moon 5:36 AM EDT 5:07 PM EDT
Length of Visible Light 11h 38m
Length of Day
10h 39m
Tomorrow will be 2m 57s shorter.
Waning Crescent, 1% of the Moon is Illuminated
Today
Waning Crescent
Oct 23
New
Oct 30
First Quarter
Nov 6
Full
Nov 14
Last Quarter

Today's Extremes

State Highs State Lows

Community

WunderPhotos

Upload Photos

1,764,071 photos uploaded!

WunderBlogs® & News

Nearby

Air Quality

  Air Quality AQ Index Pollutant
Yesterday Good
PM2.5
Current Good
PM2.5
Wednesday Good
OZONE
Wednesday Good
PM2.5
Thursday Good
OZONE
Thursday Good
PM2.5
Friday Good
OZONE
Friday Good
PM2.5
Saturday Good
OZONE
Saturday Good
PM2.5

Snow Depth

Station Depth Elevation
No new snow has been reported.

Earthquake Activity

City Distance Mag. Time & Date
No recent earthquake activity has been reported nearby.
Minimum magnitude displayed is 2.5.

Coastal Water Temperatures

Place Temperature
Bar Harbor, ME 54.0 °F
Portland, ME 54.0 °F

Nearby Weather Stations